User: anonymous   Login
Location: Unspecified
(0.0000°N, 0.0000°E)
Time: 21:54:43
(UTC+01:00)
Language:

AO-7 - Orbit

View from above orbital plane
View from above orbital plane
View from above satellite
View from above satellite

Ground track
Ground track

The orbit data is extracted from the following two-line orbital elements,

1 07530U 74089B   15085.49439727 -.00000011  00000-0  20217-3 0  9995
2 07530 101.5126 063.4285 0012358 103.5423 010.7417 12.53612923846897
Epoch (UTC): 26 March 2015 11:51:55
Eccentricity: 0.0012358
inclination: 101.5126°
perigee height: 1440 km
apogee height: 1459 km
right ascension of ascending node: 63.4285°
argument of perigee: 103.5423°
revolutions per day: 12.53612923
mean anomaly at epoch: 10.7417°
orbit number at epoch: 84689

The dashed part of the orbit path shows where the satellite is in the earth's shadow,  

DLR